[[{"header":{"parameterUnit":"m.s-1","parameterCategory":2,"la1":30.2991,"la2":30.254,"lo1":-89.0895,"lo2":-89.0444,"dy":0.0017,"dx":0.0017,"nx":28,"ny":28,"refTime":"2023-09-12T21:00:00:Z","depth":"0","parameterNumber":2,"parameterNumberName":"U-component_of_CURRENTS"},"data":[0,0,0,0,0,0,0,0,0,0,0,0,0,0,0,0,0,0,0,0,0,0,0,0,0,0,0,0,0,0,0,0,0,0,0,0,0,0,0,0,0,0,0,0,0,0,0,0,0,0,0,0,0,0,0,0,0,0,0.2242,0.2242,0,0.2295,0.2296,0.2296,0.2334,0.2334,0.2335,0.2335,0.2335,0.2334,0.2334,0,0,0,0,0,0,0,0,0,0,0,0,0,0.2183,0.2184,0.2241,0.2242,0.2243,0.2295,0.2296,0.2296,0.2334,0.2334,0.2335,0.2336,0.2335,0.2334,0.2334,0,0,0,0,0,0,0,0,0,0,0,0,0,0.2217,0.2184,0.2241,0.227,0.2274,0.2295,0.2296,0.2296,0.2334,0.2334,0.2335,0.2336,0.2335,0.2334,0.2333,0.2311,0,0,0.2331,0.2331,0,0,0,0,0,0,0,0,0.2215,0.2219,0.2265,0.2269,0.2272,0.2311,0.2275,0.23,0.2333,0.2308,0.2335,0.2336,0.2323,0.2323,0.2328,0.2311,0.2311,0.2331,0.233,0.233,0.233,0,0,0,0,0,0,0,0.2212,0.2217,0.226,0.2266,0.2271,0.2285,0.229,0.228,0.2307,0.231,0.2314,0.2324,0.2324,0.2329,0.2328,0.2311,0.2331,0.233,0.233,0.2329,0.2293,0.2293,0,0,0,0,0,0,0.221,0.2214,0.2258,0.2262,0.2248,0.2286,0.2291,0.2296,0.2308,0.2312,0.2323,0.2326,0.233,0.2329,0.2328,0.2321,0.233,0.2329,0.2329,0.2294,0.2293,0.2293,0,0,0,0,0,0,0.2208,0.2213,0.2256,0.2242,0.2249,0.2286,0.229,0.2296,0.2307,0.2319,0.2322,0.233,0.233,0.2329,0.2322,0.232,0.2329,0.2328,0.2294,0.2294,0.2293,0.2293,0,0,0,0,0,0,0.2206,0.2212,0.2208,0.2241,0.225,0.2271,0.229,0.2297,0.2314,0.2317,0.2325,0.2326,0.2331,0.2323,0.2321,0.2319,0.2327,0.2295,0.2294,0.2293,0.2294,0.2293,0.2292,0,0,0,0,0,0.2204,0.2197,0.2207,0.2213,0.2245,0.2271,0.2276,0.2304,0.2313,0.2316,0.232,0.2326,0.2316,0.2321,0.2319,0.2318,0.2295,0.2294,0.2293,0.2294,0.2293,0.2292,0,0,0,0,0,0,0.2164,0.2201,0.2213,0.2216,0.2244,0.2279,0.2282,0.2302,0.2308,0.2308,0.2317,0.2318,0.2311,0.2309,0.2315,0.2304,0.2307,0.2306,0.2309,0.2307,0.2306,0.2335,0.2327,0,0,0,0,0,0.2154,0.216,0.2199,0.22,0.2213,0.2246,0.2258,0.2279,0.2294,0.2299,0.2307,0.2307,0.2303,0.2302,0.2298,0.2287,0.2366,0.2284,0.2283,0.2283,0.2303,0.2394,0.2404,0.2289,0.2289,0.2289,0,0,0.2137,0.2159,0.2161,0.2192,0.2213,0.2233,0.2255,0.2274,0.2287,0.2295,0.2302,0.2301,0.2299,0.2293,0.229,0.2293,0.2368,0.2281,0.2281,0.2303,0.2394,0.2406,0.2416,0.2289,0.2289,0.2289,0,0,0.2125,0.2128,0.2141,0.216,0.2196,0.2217,0.2223,0.2259,0.227,0.2274,0.2285,0.2289,0.2277,0.2288,0.2287,0.2275,0.2358,0.2266,0.2285,0.2372,0.2384,0.2394,0.2569,0.2595,0.2266,0.2266,0.2266,0,0.2106,0.213,0.2147,0.2167,0.2183,0.221,0.223,0.224,0.2268,0.2279,0.2274,0.2289,0.2279,0.2295,0.2291,0.2275,0.2373,0.2291,0.2375,0.2387,0.2398,0.2574,0.2603,0.2266,0.2266,0.2266,0.2266,0,0.2122,0.2132,0.2137,0.2172,0.2184,0.2202,0.2226,0.2237,0.2248,0.2267,0.2285,0.2284,0.2309,0.229,0.2284,0.2346,0.2411,0.2366,0.2387,0.2411,0.2594,0.2624,0.2266,0.2266,0.2266,0.2266,0,0,0.2119,0.2145,0.2147,0.2164,0.219,0.2207,0.2216,0.2248,0.2278,0.2281,0.2337,0.2306,0.2333,0.2336,0.2337,0.2393,0.2558,0.2416,0.2421,0.2609,0.2842,0.285,0.2885,0.2535,0.2538,0.2541,0.2962,0,0.2137,0.2163,0.2173,0.2195,0.2217,0.2229,0.2245,0.2266,0.2287,0.2343,0.235,0.2402,0.2343,0.2386,0.2422,0.2531,0.2629,0.2455,0.2775,0.2787,0.2804,0.2915,0.2798,0.3157,0.2992,0.2997,0.3,0,0.2174,0.2184,0.2208,0.2228,0.2239,0.2251,0.2293,0.2312,0.2372,0.2401,0.2443,0.2483,0.2582,0.2523,0.2737,0.2639,0.2749,0.2821,0.2838,0.2865,0.2848,0.3092,0.3219,0.3077,0.3048,0.3044,0.304,0,0.2196,0.2215,0.2233,0.2239,0.2265,0.2276,0.2289,0.233,0.2385,0.2474,0.2566,0.2635,0.2759,0.2849,0.2992,0.2899,0.3262,0.3152,0.3278,0.3285,0.3257,0.3253,0.3292,0.3322,0.3321,0.332,0.3319,0,0.2234,0.2247,0.2244,0.2256,0.2304,0.2295,0.2359,0.2389,0.2473,0.2581,0.2618,0.2759,0.2848,0.3044,0.3106,0.3333,0.3374,0.3343,0.3391,0.3258,0.3248,0.3176,0.3086,0.3336,0.3333,0.3329,0.3327,0,0.2288,0.2271,0.2313,0.2321,0.2327,0.2369,0.2428,0.2478,0.2556,0.2718,0.2783,0.2954,0.32,0.3318,0.3548,0.3541,0.3616,0.3771,0.3656,0.3677,0.3562,0.3476,0.3539,0.3438,0.3978,0.3981,0.3983,0,0.2318,0.2344,0.2381,0.2398,0.2408,0.245,0.2486,0.2536,0.2609,0.2842,0.2949,0.3229,0.3385,0.3744,0.3824,0.4011,0.38,0.3996,0.3734,0.3594,0.3536,0.3353,0.3247,0.3755,0.3755,0.3755,0.3755,0,0.2377,0.2398,0.2409,0.2467,0.2498,0.2547,0.2596,0.2666,0.2764,0.2913,0.3119,0.3259,0.3614,0.3734,0.3979,0.4042,0.3763,0.4003,0.3871,0.3391,0.3186,0.3098,0.3503,0.3757,0.3757,0.3756,0.3756,0.3756,0.2397,0.2432,0.2435,0.2497,0.2539,0.257,0.2578,0.2656,0.2763,0.2933,0.3152,0.3337,0.3569,0.3863,0.3916,0.3898,0.3829,0.3752,0.3694,0.3548,0.3308,0.3755,0.4011,0.4013,0.4014,0.4015,0.4016,0,0.2372,0.2387,0.2447,0.2465,0.2496,0.2531,0.2592,0.2585,0.2658,0.2902,0.3062,0.3314,0.3451,0.3595,0.369,0.3585,0.3391,0.3479,0.3155,0.3086,0.3529,0.3364,0.3471,0.3471,0.3472,0.3472,0.3472,0.3472,0.2326,0.2333,0.2371,0.2375,0.2401,0.2372,0.2373,0.2412,0.2533,0.2698,0.286,0.3037,0.3251,0.3386,0.3323,0.3256,0.2962,0.2894,0.2844,0.3091,0.3107,0.3123,0.2943,0.296,0.296,0.2271,0.2266,0.2262]},{"header":{"parameterUnit":"m.s-1","parameterCategory":2,"la1":30.2991,"la2":30.254,"lo1":-89.0895,"lo2":-89.0444,"dy":0.0017,"dx":0.0017,"nx":28,"ny":28,"refTime":"2023-09-12T21:00:00:Z","depth":"0","parameterNumber":3,"parameterNumberName":"V-component_of_CURRENTS"},"data":[0,0,0,0,0,0,0,0,0,0,0,0,0,0,0,0,0,0,0,0,0,0,0,0,0,0,0,0,0,0,0,0,0,0,0,0,0,0,0,0,0,0,0,0,0,0,0,0,0,0,0,0,0,0,0,0,0,0,-0.0376,-0.0377,0,-0.0464,-0.0465,-0.0466,-0.0505,-0.0505,-0.0504,-0.0504,-0.0604,-0.0607,-0.061,0,0,0,0,0,0,0,0,0,0,0,0,0,-0.0295,-0.0296,-0.0376,-0.0377,-0.0378,-0.0463,-0.0465,-0.0466,-0.0505,-0.0505,-0.0504,-0.0504,-0.0603,-0.0607,-0.061,0,0,0,0,0,0,0,0,0,0,0,0,0,-0.0351,-0.0296,-0.0376,-0.0408,-0.0412,-0.0463,-0.0465,-0.0466,-0.0505,-0.0505,-0.0504,-0.0504,-0.0602,-0.0606,-0.061,-0.064,0,0,-0.0623,-0.0625,0,0,0,0,0,0,0,0,-0.0348,-0.0354,-0.0402,-0.0406,-0.041,-0.0473,-0.0473,-0.0525,-0.0505,-0.0469,-0.0504,-0.0504,-0.0562,-0.0569,-0.0586,-0.0644,-0.0649,-0.0624,-0.0626,-0.0628,-0.0629,0,0,0,0,0,0,0,-0.0344,-0.0351,-0.0411,-0.0403,-0.0408,-0.0436,-0.0443,-0.0483,-0.0516,-0.0473,-0.0476,-0.0485,-0.0564,-0.0582,-0.0589,-0.065,-0.0623,-0.0627,-0.063,-0.0631,-0.0758,-0.0759,0,0,0,0,0,0,-0.033,-0.0347,-0.0408,-0.0414,-0.0378,-0.0437,-0.0445,-0.0453,-0.0515,-0.0524,-0.0485,-0.0487,-0.0575,-0.0584,-0.0592,-0.0615,-0.0628,-0.0632,-0.0634,-0.0758,-0.0759,-0.076,0,0,0,0,0,0,-0.0328,-0.0335,-0.0405,-0.0382,-0.0393,-0.0438,-0.0447,-0.0455,-0.0474,-0.0525,-0.0534,-0.0496,-0.0575,-0.0586,-0.0638,-0.062,-0.0634,-0.0637,-0.0756,-0.0758,-0.0759,-0.0671,0,0,0,0,0,0,-0.0325,-0.0334,-0.0333,-0.0381,-0.0394,-0.0431,-0.0447,-0.0457,-0.048,-0.0483,-0.0537,-0.0546,-0.0576,-0.0631,-0.0642,-0.0626,-0.0641,-0.0755,-0.0757,-0.0759,-0.0673,-0.0669,-0.0666,0,0,0,0,0,-0.0322,-0.0321,-0.0332,-0.034,-0.0392,-0.0431,-0.044,-0.0472,-0.0481,-0.0489,-0.0533,-0.0545,-0.0649,-0.0636,-0.0648,-0.0632,-0.0755,-0.0757,-0.0759,-0.0674,-0.067,-0.0666,0,0,0,0,0,0,-0.0287,-0.0326,-0.0339,-0.035,-0.0386,-0.0438,-0.0447,-0.0471,-0.0513,-0.0514,-0.0561,-0.0574,-0.0613,-0.0647,-0.0631,-0.0679,-0.0702,-0.0706,-0.0634,-0.063,-0.0627,-0.0567,-0.0644,0,0,0,0,0,-0.0278,-0.0283,-0.0331,-0.0338,-0.0355,-0.0401,-0.0421,-0.0443,-0.0487,-0.0504,-0.0545,-0.0591,-0.0631,-0.0649,-0.0695,-0.0722,-0.0696,-0.0722,-0.0719,-0.0715,-0.0678,-0.0654,-0.0643,-0.0766,-0.0766,-0.0766,0,0,-0.0264,-0.0287,-0.0289,-0.033,-0.036,-0.0374,-0.0412,-0.0438,-0.0444,-0.0509,-0.0533,-0.0585,-0.0641,-0.067,-0.0689,-0.0692,-0.0664,-0.0718,-0.0714,-0.0678,-0.0655,-0.0642,-0.063,-0.0767,-0.0767,-0.0767,0,0,-0.0234,-0.0262,-0.0254,-0.0283,-0.0323,-0.0354,-0.0359,-0.0413,-0.043,-0.0469,-0.0513,-0.0549,-0.0622,-0.0642,-0.0665,-0.0674,-0.0654,-0.07,-0.0621,-0.0598,-0.0586,-0.0575,-0.0496,-0.0479,-0.0689,-0.0688,-0.0688,0,-0.0211,-0.0213,-0.026,-0.0263,-0.0275,-0.0339,-0.0333,-0.0367,-0.0428,-0.0422,-0.0466,-0.0533,-0.0597,-0.0594,-0.0609,-0.0658,-0.0625,-0.0625,-0.0586,-0.0576,-0.0566,-0.0488,-0.047,-0.0684,-0.0685,-0.0685,-0.0686,0,-0.0175,-0.0181,-0.0182,-0.0202,-0.0223,-0.0233,-0.0282,-0.0298,-0.0332,-0.0352,-0.0367,-0.045,-0.0467,-0.0515,-0.057,-0.0534,-0.0524,-0.0587,-0.0579,-0.0547,-0.0468,-0.0451,-0.0679,-0.068,-0.0681,-0.0682,0,0,-0.0096,-0.0144,-0.014,-0.0133,-0.0188,-0.0193,-0.0204,-0.0211,-0.0169,-0.0247,-0.0184,-0.0298,-0.0314,-0.0341,-0.0406,-0.041,-0.0333,-0.0463,-0.0464,-0.035,-0.0226,-0.0221,-0.0201,-0.0386,-0.0384,-0.0382,-0.0185,0,-0.0044,-0.0029,-0.0071,-0.0048,-0.0042,-0.0096,-0.0084,-0.0098,-0.011,-0.0069,-0.0134,-0.0114,-0.0254,-0.0236,-0.0268,-0.0308,-0.0289,-0.0376,-0.0303,-0.0299,-0.0272,-0.0182,-0.0234,-0.0064,-0.0168,-0.0165,-0.0163,0,0.0027,0.0023,0.0055,0.0053,0.0055,0.0066,0.0109,0.011,0.0135,0.0138,0.0145,0.011,0.0114,-0.0019,-0.0034,-0.0078,-0.0136,-0.0185,-0.018,-0.0187,-0.0263,-0.0125,-0.0029,-0.0267,-0.0136,-0.0138,-0.014,0,0.0139,0.0126,0.0162,0.0156,0.0136,0.0168,0.0172,0.0193,0.0253,0.0309,0.0394,0.0352,0.0407,0.0301,0.019,0.0096,0.0196,0.0055,0.0018,0.002,-0.0013,-0.0019,-0.0109,0.0058,0.0057,0.0057,0.0056,0,0.0231,0.0264,0.0225,0.0248,0.0329,0.028,0.0395,0.04,0.0478,0.0613,0.0535,0.0666,0.0486,0.0506,0.0332,0.0281,0.0321,0.0088,0.0078,0.0015,0.001,-0.0194,-0.0308,0.0064,0.0063,0.0061,0.006,0,0.0372,0.0331,0.0383,0.0377,0.0388,0.0462,0.054,0.0642,0.0689,0.0882,0.0929,0.0967,0.0993,0.0829,0.0724,0.0528,0.0323,0.0386,0.0359,0.0339,0.0013,-0.0092,-0.0072,-0.0157,0.0379,0.038,0.0382,0,0.0449,0.0486,0.0507,0.0558,0.0567,0.0652,0.0733,0.0761,0.0886,0.1085,0.1218,0.1307,0.1384,0.1261,0.094,0.0718,0.0461,0.0506,0.0272,0.0045,-0.008,-0.0153,-0.0233,0.0284,0.0285,0.0285,0.0285,0,0.0599,0.0606,0.064,0.0737,0.0822,0.0929,0.1043,0.1162,0.1254,0.1413,0.1639,0.1721,0.1621,0.1391,0.108,0.086,0.0341,0.0503,0.0261,-0.0141,-0.0213,-0.0317,0.014,0.0287,0.0287,0.0287,0.0287,0.0287,0.0716,0.0778,0.0812,0.0915,0.1026,0.1181,0.1277,0.1421,0.1611,0.183,0.1923,0.2055,0.1707,0.1265,0.0984,0.0365,0.0382,0.0091,0.0003,-0.0033,-0.019,0.0309,0.0423,0.0423,0.0424,0.0424,0.0425,0,0.0818,0.0866,0.0981,0.1086,0.1233,0.1259,0.1462,0.1557,0.1766,0.2002,0.216,0.2059,0.1601,0.1103,0.0317,-0.01,-0.0275,-0.0331,-0.0507,-0.0555,-0.0122,-0.0215,-0.0226,-0.0226,-0.0226,-0.0225,-0.0225,-0.0225,0.0862,0.0955,0.0999,0.1217,0.132,0.1488,0.1592,0.175,0.1913,0.2132,0.2212,0.2268,0.1848,0.052,-0.0432,-0.0642,-0.0923,-0.0936,-0.1047,-0.0866,-0.0837,-0.081,-0.093,-0.1091,-0.1092,-0.1493,-0.1497,-0.1501]}],[{"header":{"parameterUnit":"m.s-1","parameterCategory":2,"la1":30.2991,"la2":30.254,"lo1":-89.0895,"lo2":-89.0444,"dy":0.0017,"dx":0.0017,"nx":28,"ny":28,"refTime":"2023-09-12T21:00:00:Z","depth":"2","parameterNumber":2,"parameterNumberName":"U-component_of_CURRENTS"},"data":[0,0,0,0,0,0,0,0,0,0,0,0,0,0,0,0,0,0,0,0,0,0,0,0,0,0,0,0,0,0,0,0,0,0,0,0,0,0,0,0,0,0,0,0,0,0,0,0,0,0,0,0,0,0,0,0,0,0,0.2174,0.2174,0,0.2188,0.2188,0.2188,0.2214,0.2215,0.2215,0.2216,0.2245,0.2245,0.2245,0,0,0,0,0,0,0,0,0,0,0,0,0,0.2133,0.2134,0.2174,0.2174,0.2175,0.2188,0.2188,0.2188,0.2214,0.2215,0.2216,0.2216,0.2245,0.2245,0.2245,0,0,0,0,0,0,0,0,0,0,0,0,0,0.2147,0.2134,0.2174,0.2191,0.2193,0.2188,0.2188,0.2188,0.2214,0.2215,0.2216,0.2217,0.2245,0.2245,0.2245,0.2223,0,0,0.2246,0.2246,0,0,0,0,0,0,0,0,0.2146,0.2148,0.2188,0.219,0.2192,0.2203,0.2185,0.2202,0.2213,0.2203,0.2216,0.2217,0.2233,0.2235,0.223,0.2225,0.2226,0.2246,0.2246,0.2246,0.2246,0,0,0,0,0,0,0,0.2145,0.2147,0.2177,0.2189,0.2191,0.2187,0.219,0.2188,0.221,0.2204,0.2206,0.2212,0.2234,0.223,0.2231,0.2226,0.2246,0.2246,0.2246,0.2246,0.2347,0.235,0,0,0,0,0,0,0.215,0.2147,0.2176,0.2177,0.2175,0.2187,0.219,0.2196,0.2209,0.2213,0.2211,0.2213,0.223,0.2231,0.2233,0.2313,0.2246,0.2246,0.2246,0.2345,0.2348,0.2351,0,0,0,0,0,0,0.2149,0.2152,0.2176,0.2165,0.2168,0.2187,0.2193,0.2196,0.2226,0.2216,0.2219,0.2243,0.223,0.2232,0.2283,0.231,0.2246,0.2246,0.2342,0.2346,0.2349,0.2406,0,0,0,0,0,0,0.2147,0.2152,0.2179,0.2165,0.2169,0.221,0.2192,0.2195,0.2227,0.2231,0.2243,0.2245,0.2231,0.2283,0.2283,0.2309,0.2246,0.2338,0.2343,0.2348,0.2401,0.2412,0.2421,0,0,0,0,0,0.2146,0.2183,0.218,0.2185,0.2198,0.2212,0.2215,0.2229,0.2228,0.2257,0.2273,0.2246,0.2314,0.2285,0.2284,0.2312,0.2336,0.2342,0.2348,0.2397,0.241,0.2421,0,0,0,0,0,0,0.217,0.2188,0.2185,0.2223,0.2232,0.2219,0.2245,0.2248,0.2279,0.2286,0.2275,0.228,0.2335,0.2324,0.2292,0.2361,0.2322,0.2328,0.236,0.2372,0.2381,0.2311,0.2246,0,0,0,0,0,0.2187,0.2228,0.2224,0.2256,0.2259,0.2253,0.2267,0.2273,0.2287,0.2302,0.2313,0.233,0.2351,0.2365,0.2382,0.2411,0.241,0.2434,0.2444,0.2452,0.2399,0.2441,0.2448,0.237,0.237,0.237,0,0,0.2181,0.222,0.2226,0.2267,0.2264,0.2286,0.2265,0.2291,0.2317,0.2298,0.2352,0.2367,0.2372,0.2415,0.2437,0.2412,0.2493,0.2459,0.2466,0.2406,0.2448,0.2455,0.2461,0.2374,0.2374,0.2373,0,0,0.2225,0.2241,0.2291,0.2303,0.2335,0.2333,0.235,0.2356,0.2371,0.2418,0.2415,0.244,0.2486,0.2478,0.2482,0.2553,0.2548,0.2585,0.2565,0.261,0.2615,0.2619,0.2698,0.2709,0.2583,0.2583,0.2583,0,0.2237,0.2281,0.2304,0.2355,0.2353,0.2359,0.2376,0.2399,0.2431,0.2422,0.2454,0.2488,0.2502,0.2511,0.2538,0.2567,0.2607,0.2517,0.2618,0.2622,0.2625,0.2705,0.2715,0.2586,0.2586,0.2585,0.2585,0,0.2291,0.2332,0.2356,0.2417,0.2432,0.2443,0.2457,0.2482,0.25,0.2502,0.2531,0.2554,0.2554,0.2588,0.2578,0.2605,0.2637,0.2632,0.2576,0.2635,0.2718,0.2728,0.2591,0.259,0.2589,0.2588,0,0,0.2304,0.2376,0.2391,0.2391,0.2448,0.2444,0.2494,0.2496,0.25,0.2547,0.255,0.258,0.2565,0.2565,0.2574,0.2598,0.269,0.2618,0.2619,0.2676,0.2827,0.2761,0.2766,0.2713,0.2714,0.2714,0.2901,0,0.2333,0.2403,0.2446,0.2471,0.2467,0.2476,0.2508,0.2517,0.2543,0.2565,0.2563,0.2596,0.2572,0.259,0.2602,0.2674,0.2707,0.264,0.2775,0.2779,0.2694,0.2771,0.2542,0.2678,0.2911,0.2912,0.2914,0,0.2364,0.2404,0.2427,0.2437,0.2435,0.2462,0.2451,0.2487,0.2518,0.2538,0.2545,0.2575,0.2606,0.2599,0.2697,0.2667,0.2723,0.2775,0.2785,0.2681,0.2727,0.2645,0.2687,0.293,0.2929,0.2928,0.2926,0,0.2308,0.2378,0.2379,0.2381,0.2415,0.2412,0.2432,0.246,0.2492,0.253,0.2582,0.2596,0.267,0.2707,0.2813,0.2772,0.2951,0.2921,0.291,0.291,0.2708,0.2687,0.2964,0.2963,0.2963,0.2963,0.2962,0,0.2295,0.2295,0.2345,0.2333,0.2328,0.2361,0.2377,0.2395,0.2466,0.2526,0.2561,0.2644,0.2704,0.2821,0.2853,0.2933,0.2996,0.2894,0.2936,0.2733,0.2712,0.2897,0.2887,0.297,0.2968,0.2967,0.2965,0,0.2227,0.2267,0.2258,0.2287,0.23,0.2288,0.2369,0.2389,0.2468,0.2566,0.2601,0.2732,0.2872,0.2946,0.3072,0.3022,0.3087,0.3097,0.2871,0.2876,0.3004,0.2995,0.3072,0.3071,0.307,0.3069,0.3069,0,0.2188,0.2181,0.2211,0.2216,0.2234,0.2253,0.2282,0.2368,0.2433,0.2631,0.2691,0.2865,0.2941,0.3096,0.3069,0.3107,0.3158,0.2903,0.2721,0.2973,0.3008,0.3,0.2993,0.2534,0.2529,0.2525,0.2522,0,0.2103,0.2124,0.2125,0.2156,0.218,0.2214,0.2283,0.2341,0.2482,0.258,0.2749,0.2825,0.2962,0.2878,0.2917,0.2896,0.2857,0.2816,0.3168,0.2519,0.2473,0.2505,0.2514,0.2485,0.2489,0.2492,0.2494,0.2495,0.2039,0.2034,0.2067,0.2087,0.2127,0.2177,0.2189,0.2294,0.2392,0.2482,0.2633,0.2642,0.2686,0.2586,0.2554,0.2529,0.2688,0.2542,0.2552,0.2567,0.2447,0.2399,0.2379,0.2382,0.2384,0.2387,0.2388,0,0.1971,0.1993,0.2001,0.2035,0.2055,0.2114,0.2193,0.2161,0.2238,0.2312,0.235,0.2151,0.2109,0.2196,0.2091,0.2077,0.2024,0.2002,0.1913,0.1953,0.1987,0.1833,0.1605,0.1603,0.16,0.1598,0,0,0.1936,0.193,0.1946,0.1962,0.1995,0.2001,0.2029,0.198,0.1992,0.1894,0.1875,0.1916,0.209,0.1786,0.1769,0.168,0.179,0.1614,0.2247,0.218,0.2211,0.2313,0.2122,0,0,0,0,0]},{"header":{"parameterUnit":"m.s-1","parameterCategory":2,"la1":30.2991,"la2":30.254,"lo1":-89.0895,"lo2":-89.0444,"dy":0.0017,"dx":0.0017,"nx":28,"ny":28,"refTime":"2023-09-12T21:00:00:Z","depth":"2","parameterNumber":3,"parameterNumberName":"V-component_of_CURRENTS"},"data":[0,0,0,0,0,0,0,0,0,0,0,0,0,0,0,0,0,0,0,0,0,0,0,0,0,0,0,0,0,0,0,0,0,0,0,0,0,0,0,0,0,0,0,0,0,0,0,0,0,0,0,0,0,0,0,0,0,0,0.0108,0.0108,0,0.0068,0.0067,0.0067,-0.0034,-0.0037,-0.0039,-0.0041,-0.0174,-0.0175,-0.0177,0,0,0,0,0,0,0,0,0,0,0,0,0,0.0091,0.0092,0.0108,0.0108,0.0107,0.0068,0.0067,0.0067,-0.0034,-0.0037,-0.0039,-0.0042,-0.0173,-0.0175,-0.0177,0,0,0,0,0,0,0,0,0,0,0,0,0,0.0079,0.0092,0.0108,0.0053,0.0048,0.0068,0.0067,0.0067,-0.0034,-0.0037,-0.004,-0.0043,-0.0173,-0.0175,-0.0177,-0.013,0,0,-0.0185,-0.0186,0,0,0,0,0,0,0,0,0.008,0.008,0.0061,0.0057,0.0051,0.0019,0.0012,-0.0004,-0.0033,-0.0003,-0.0041,-0.0044,-0.0115,-0.0122,-0.0123,-0.0136,-0.0142,-0.0185,-0.0187,-0.0188,-0.0188,0,0,0,0,0,0,0,0.0081,0.0081,0.0092,0.0061,0.0055,0.0028,0.0022,0.0009,-0.0044,-0.0006,-0.0014,-0.0016,-0.0119,-0.012,-0.0127,-0.0144,-0.0185,-0.0187,-0.0189,-0.019,-0.0321,-0.0323,0,0,0,0,0,0,0.0091,0.0082,0.0093,0.009,0.0059,0.0031,0.0025,0.0032,-0.0042,-0.0055,-0.0013,-0.002,-0.0114,-0.0124,-0.0132,-0.0228,-0.0188,-0.019,-0.0191,-0.0319,-0.0321,-0.0323,0,0,0,0,0,0,0.0091,0.0093,0.0094,0.0085,0.0083,0.0034,0.0043,0.0033,-0.0001,-0.0046,-0.0062,-0.0041,-0.0117,-0.0129,-0.0184,-0.0229,-0.0191,-0.0193,-0.0316,-0.032,-0.0322,-0.0325,0,0,0,0,0,0,0.0091,0.0094,0.0091,0.0086,0.0084,0.0091,0.0046,0.0034,0.0004,-0.0007,-0.0073,-0.0087,-0.0121,-0.018,-0.0186,-0.0231,-0.0195,-0.0314,-0.0318,-0.0321,-0.0323,-0.0328,-0.0333,0,0,0,0,0,0.0091,0.0099,0.0092,0.0092,0.0087,0.0091,0.0087,0.0041,0.0006,-0.0003,-0.0064,-0.0087,-0.0211,-0.0182,-0.019,-0.0237,-0.0312,-0.0317,-0.0321,-0.032,-0.0327,-0.0333,0,0,0,0,0,0,0.009,0.009,0.0081,0.0088,0.0085,0.0073,0.0064,0.0037,-0.0012,-0.0035,-0.0089,-0.0106,-0.0186,-0.02,-0.0168,-0.0291,-0.0274,-0.028,-0.0271,-0.0278,-0.0283,-0.0235,-0.0197,0,0,0,0,0,0.0095,0.0094,0.0098,0.0101,0.0106,0.0085,0.0076,0.0049,0.0014,-0.0012,-0.0066,-0.0132,-0.02,-0.0229,-0.0284,-0.0317,-0.0312,-0.0363,-0.0367,-0.0371,-0.0341,-0.0368,-0.0371,-0.0339,-0.0338,-0.0338,0,0,0.0108,0.0094,0.0103,0.0099,0.0096,0.0089,0.007,0.006,0.0025,-0.0015,-0.0091,-0.0149,-0.0216,-0.0285,-0.0321,-0.0305,-0.0384,-0.0377,-0.038,-0.0347,-0.0373,-0.0376,-0.0378,-0.0342,-0.0341,-0.0341,0,0,0.0111,0.0116,0.0112,0.0108,0.0094,0.0085,0.0079,0.0057,0.0016,-0.0041,-0.0105,-0.0168,-0.0264,-0.031,-0.035,-0.0402,-0.0418,-0.0453,-0.0426,-0.0455,-0.0456,-0.0457,-0.0468,-0.047,-0.0445,-0.0446,-0.0446,0,0.0107,0.011,0.0113,0.0097,0.0092,0.008,0.0075,0.0043,-0.001,-0.0034,-0.0078,-0.0215,-0.0272,-0.0341,-0.038,-0.041,-0.0425,-0.0396,-0.0456,-0.0457,-0.0458,-0.0469,-0.0471,-0.0446,-0.0446,-0.0446,-0.0446,0,0.0116,0.0104,0.0106,0.0079,0.0076,0.0076,0.005,0.0021,-0.0034,-0.007,-0.0157,-0.0227,-0.0296,-0.0352,-0.0387,-0.0437,-0.0447,-0.0465,-0.0428,-0.0461,-0.0472,-0.0474,-0.0447,-0.0447,-0.0447,-0.0447,0,0,0.0116,0.0113,0.01,0.0097,0.0069,0.0074,0.0029,0.0003,-0.0016,-0.0102,-0.0132,-0.0263,-0.0282,-0.0325,-0.0378,-0.0405,-0.0443,-0.0437,-0.0438,-0.0424,-0.05,-0.0501,-0.0503,-0.0481,-0.0481,-0.0481,-0.0508,0,0.0107,0.0092,0.0083,0.0067,0.0074,0.0057,0.0027,-0.0005,-0.0049,-0.008,-0.0153,-0.0205,-0.0281,-0.0303,-0.0352,-0.0411,-0.0448,-0.0433,-0.0489,-0.049,-0.0467,-0.0505,-0.046,-0.048,-0.051,-0.051,-0.051,0,0.0101,0.0089,0.0087,0.0083,0.0086,0.007,0.0057,0.0032,-0.0009,-0.0039,-0.0089,-0.0137,-0.0188,-0.0244,-0.0351,-0.0343,-0.0421,-0.047,-0.0473,-0.0462,-0.0494,-0.0453,-0.0482,-0.0514,-0.0513,-0.0513,-0.0513,0,0.0108,0.0087,0.009,0.0087,0.0081,0.0073,0.0069,0.004,0.0049,0.0016,0.0032,-0.0063,-0.0075,-0.019,-0.0306,-0.0331,-0.0409,-0.0453,-0.0527,-0.0528,-0.0489,-0.0486,-0.053,-0.053,-0.053,-0.053,-0.053,0,0.0106,0.0102,0.0097,0.0099,0.011,0.0098,0.0116,0.0099,0.0111,0.0157,0.0071,0.0098,-0.0062,-0.013,-0.0266,-0.039,-0.0384,-0.0512,-0.0535,-0.0494,-0.049,-0.0515,-0.0513,-0.0531,-0.0531,-0.053,-0.053,0,0.0121,0.0114,0.0121,0.0115,0.0119,0.013,0.0174,0.02,0.0204,0.0273,0.0282,0.023,0.0154,-0.001,-0.0167,-0.0309,-0.0439,-0.0493,-0.0425,-0.044,-0.0551,-0.055,-0.0571,-0.0571,-0.0572,-0.0572,-0.0572,0,0.0143,0.0143,0.0141,0.016,0.016,0.0188,0.0221,0.0239,0.0298,0.0368,0.042,0.0373,0.0366,0.0129,-0.0119,-0.0341,-0.0403,-0.0467,-0.0512,-0.0535,-0.0556,-0.0554,-0.0552,-0.047,-0.0469,-0.0469,-0.0468,0,0.0184,0.0169,0.0179,0.0217,0.0247,0.0298,0.0359,0.0434,0.0496,0.0584,0.0694,0.0702,0.0473,0.0268,-0.0064,-0.0225,-0.0429,-0.0463,-0.0497,-0.0468,-0.0443,-0.0462,-0.0463,-0.0463,-0.0464,-0.0464,-0.0464,-0.0464,0.022,0.0238,0.0255,0.0295,0.0341,0.0436,0.0528,0.0632,0.0781,0.0924,0.0878,0.0887,0.0606,0.0206,-0.0058,-0.0355,-0.0375,-0.0493,-0.0493,-0.0495,-0.0479,-0.0457,-0.0476,-0.0476,-0.0477,-0.0477,-0.0477,0,0.0291,0.0311,0.0347,0.0417,0.0503,0.05,0.065,0.0765,0.0997,0.1046,0.1118,0.0866,0.0618,0.0304,-0.0117,-0.0382,-0.0408,-0.0465,-0.044,-0.0443,-0.0447,-0.0429,-0.0412,-0.0412,-0.0413,-0.0413,0,0,0.0336,0.0392,0.0409,0.0565,0.0625,0.078,0.0889,0.1057,0.1144,0.1219,0.1196,0.1051,0.0699,0.0401,0.0054,-0.0166,-0.0245,-0.0214,-0.024,-0.0173,-0.0172,-0.0439,-0.0412,0,0,0,0,0]}],[{"header":{"parameterUnit":"m.s-1","parameterCategory":2,"la1":30.2991,"la2":30.254,"lo1":-89.0895,"lo2":-89.0444,"dy":0.0017,"dx":0.0017,"nx":28,"ny":28,"refTime":"2023-09-12T21:00:00:Z","depth":"4","parameterNumber":2,"parameterNumberName":"U-component_of_CURRENTS"},"data":[0,0,0,0,0,0,0,0,0,0,0,0,0,0,0,0,0,0,0,0,0,0,0,0,0,0,0,0,0,0,0,0,0,0,0,0,0,0,0,0,0,0,0,0,0,0,0,0,0,0,0,0,0,0,0,0,0,0,0.1004,0.1004,0,0.107,0.1071,0.1072,0.1116,0.1117,0.1117,0.1117,0.1165,0.1166,0.1167,0,0,0,0,0,0,0,0,0,0,0,0,0,0.0919,0.092,0.1004,0.1005,0.1005,0.107,0.1071,0.1072,0.1116,0.1117,0.1117,0.1117,0.1164,0.1166,0.1167,0,0,0,0,0,0,0,0,0,0,0,0,0,0.0968,0.0921,0.1004,0.1035,0.1038,0.107,0.1071,0.1072,0.1116,0.1117,0.1117,0.1117,0.1164,0.1166,0.1167,0.1169,0,0,0.1172,0.1172,0,0,0,0,0,0,0,0,0.0965,0.0971,0.1029,0.1033,0.1037,0.1085,0.1059,0.1104,0.1116,0.1087,0.1117,0.1118,0.1136,0.114,0.1152,0.1171,0.1173,0.1172,0.1173,0.1174,0.1174,0,0,0,0,0,0,0,0.0962,0.0969,0.1031,0.103,0.1035,0.1047,0.1054,0.1068,0.1108,0.109,0.1093,0.1099,0.1138,0.1151,0.1154,0.1174,0.1172,0.1173,0.1174,0.1175,0.1277,0.1279,0,0,0,0,0,0,0.0952,0.0966,0.1029,0.1033,0.1001,0.1048,0.1056,0.1069,0.1109,0.1115,0.1099,0.1101,0.1148,0.1152,0.1155,0.1222,0.1173,0.1175,0.1176,0.1275,0.1277,0.1279,0,0,0,0,0,0,0.095,0.0957,0.1026,0.1,0.1009,0.1049,0.1063,0.1071,0.1109,0.1116,0.1122,0.1133,0.1148,0.1153,0.1182,0.1222,0.1176,0.1177,0.1273,0.1276,0.1278,0.1316,0,0,0,0,0,0,0.0948,0.0957,0.0973,0.0999,0.101,0.1056,0.1063,0.1072,0.1111,0.1115,0.1147,0.115,0.1149,0.118,0.1184,0.1223,0.1178,0.1271,0.1274,0.1277,0.1312,0.1319,0.1325,0,0,0,0,0,0.0945,0.096,0.0973,0.0981,0.1028,0.1057,0.1064,0.1093,0.1112,0.113,0.115,0.115,0.1205,0.1182,0.1186,0.1227,0.1269,0.1273,0.1277,0.1309,0.1318,0.1325,0,0,0,0,0,0,0.0933,0.0966,0.0982,0.1008,0.1036,0.1064,0.1087,0.1109,0.1141,0.1153,0.1161,0.1166,0.1203,0.1213,0.1188,0.1269,0.1243,0.1247,0.1266,0.1274,0.128,0.1286,0.118,0,0,0,0,0,0.0937,0.0958,0.099,0.1012,0.103,0.1065,0.1086,0.1109,0.1135,0.1152,0.1168,0.1196,0.122,0.1244,0.1255,0.13,0.1302,0.1335,0.1341,0.1347,0.1357,0.1381,0.1391,0.1292,0.1292,0.1292,0,0,0.0942,0.096,0.0975,0.1012,0.104,0.1066,0.108,0.112,0.1143,0.115,0.1189,0.1209,0.1233,0.1274,0.1296,0.1293,0.1378,0.1352,0.1356,0.1363,0.1386,0.1396,0.1404,0.1295,0.1295,0.1294,0,0,0.0945,0.0978,0.0994,0.1022,0.1064,0.1083,0.1101,0.1141,0.1165,0.1201,0.1215,0.1262,0.1294,0.1326,0.1346,0.1401,0.1398,0.1415,0.1469,0.1493,0.1501,0.1508,0.1525,0.1533,0.1435,0.1435,0.1435,0,0.0949,0.0976,0.1004,0.1027,0.1052,0.1094,0.1119,0.1148,0.1191,0.1212,0.1218,0.1303,0.1321,0.1391,0.1416,0.1417,0.1424,0.1433,0.15,0.1507,0.1514,0.1529,0.1538,0.1437,0.1437,0.1437,0.1436,0,0.0964,0.0994,0.1009,0.1049,0.1076,0.1111,0.1148,0.1189,0.1223,0.1245,0.1315,0.1355,0.1421,0.1437,0.1445,0.1519,0.1506,0.1489,0.1474,0.1525,0.1539,0.1547,0.144,0.144,0.1439,0.1438,0,0,0.0944,0.1007,0.1015,0.1036,0.1096,0.1115,0.1167,0.1215,0.126,0.1311,0.1376,0.1438,0.1486,0.1514,0.1551,0.158,0.1634,0.1566,0.1567,0.1574,0.1686,0.1583,0.1582,0.1625,0.1627,0.1628,0.1677,0,0.0949,0.0989,0.1021,0.1063,0.1086,0.1146,0.1187,0.1237,0.1288,0.1357,0.1427,0.1499,0.1509,0.1575,0.1608,0.1624,0.1658,0.1622,0.1644,0.1645,0.1539,0.1589,0.1633,0.1683,0.1685,0.1686,0.1687,0,0.0943,0.0971,0.1013,0.1071,0.109,0.113,0.1215,0.1262,0.1361,0.1405,0.1505,0.1561,0.1663,0.1654,0.1725,0.1703,0.1709,0.1706,0.1707,0.1604,0.1557,0.1623,0.1702,0.17,0.1699,0.1698,0.1698,0,0.0897,0.0957,0.0988,0.1013,0.1091,0.1137,0.1195,0.1284,0.133,0.1467,0.1532,0.1634,0.1713,0.1745,0.1776,0.1761,0.1814,0.179,0.1702,0.1695,0.1754,0.1746,0.1829,0.1829,0.1828,0.1828,0.1828,0,0.0873,0.0898,0.098,0.1005,0.105,0.1123,0.1198,0.1271,0.1388,0.1452,0.158,0.1654,0.1736,0.1788,0.1799,0.1778,0.1844,0.172,0.1704,0.177,0.1763,0.176,0.1751,0.183,0.183,0.1829,0.1829,0,0.0808,0.0868,0.0901,0.0997,0.1031,0.107,0.1194,0.1251,0.1377,0.1485,0.1545,0.1671,0.1742,0.1802,0.1839,0.1792,0.179,0.1763,0.1841,0.1826,0.165,0.1643,0.1676,0.1673,0.167,0.1668,0.1666,0,0.078,0.0795,0.0883,0.091,0.0961,0.104,0.1101,0.1231,0.1296,0.1479,0.1524,0.1647,0.1725,0.1701,0.1753,0.1772,0.1747,0.1734,0.1685,0.1655,0.1637,0.1634,0.1631,0.1662,0.1661,0.166,0.166,0,0.0718,0.0755,0.0788,0.0847,0.0909,0.0957,0.1066,0.1106,0.1269,0.1395,0.148,0.1541,0.1604,0.163,0.1654,0.1661,0.1737,0.1705,0.171,0.1665,0.1638,0.1622,0.1622,0.165,0.1652,0.1653,0.1653,0,0.067,0.0672,0.0726,0.0768,0.0832,0.0869,0.0935,0.103,0.1108,0.1332,0.1341,0.1482,0.1578,0.1572,0.1596,0.1599,0.1574,0.1516,0.153,0.1541,0.1474,0.1419,0.1359,0,0,0,0,0,0.0596,0.0608,0.0649,0.0692,0.0752,0.0789,0.0906,0.0982,0.1154,0.1183,0.1264,0.1334,0.1392,0.144,0.1416,0.1526,0.1567,0.1489,0.1504,0.1599,0.161,0.1542,0,0,0,0,0,0,0.0553,0.0582,0.0615,0.0618,0.0642,0.0696,0.0766,0.0879,0.0906,0.1084,0.1115,0.1245,0.1305,0.1389,0.1385,0.1403,0.1384,0.157,0.1566,0.1593,0.1603,0.1611,0.1546,0,0,0,0,0]},{"header":{"parameterUnit":"m.s-1","parameterCategory":2,"la1":30.2991,"la2":30.254,"lo1":-89.0895,"lo2":-89.0444,"dy":0.0017,"dx":0.0017,"nx":28,"ny":28,"refTime":"2023-09-12T21:00:00:Z","depth":"4","parameterNumber":3,"parameterNumberName":"V-component_of_CURRENTS"},"data":[0,0,0,0,0,0,0,0,0,0,0,0,0,0,0,0,0,0,0,0,0,0,0,0,0,0,0,0,0,0,0,0,0,0,0,0,0,0,0,0,0,0,0,0,0,0,0,0,0,0,0,0,0,0,0,0,0,0,0.0318,0.0318,0,0.0307,0.0307,0.0306,0.0272,0.0271,0.0271,0.027,0.0228,0.0227,0.0226,0,0,0,0,0,0,0,0,0,0,0,0,0,0.0301,0.0301,0.0318,0.0318,0.0318,0.0307,0.0306,0.0306,0.0272,0.0271,0.027,0.027,0.0228,0.0227,0.0226,0,0,0,0,0,0,0,0,0,0,0,0,0,0.0298,0.0301,0.0318,0.0302,0.0301,0.0307,0.0306,0.0306,0.0272,0.0271,0.027,0.027,0.0228,0.0227,0.0226,0.0235,0,0,0.0223,0.0223,0,0,0,0,0,0,0,0,0.0298,0.0298,0.0304,0.0303,0.0302,0.0292,0.0285,0.0282,0.0272,0.028,0.027,0.0269,0.0249,0.0246,0.0242,0.0233,0.0231,0.0223,0.0223,0.0222,0.0222,0,0,0,0,0,0,0,0.0298,0.0298,0.0311,0.0305,0.0303,0.0292,0.0291,0.0284,0.0266,0.0279,0.0277,0.0281,0.0248,0.0243,0.0241,0.023,0.0223,0.0222,0.0222,0.0221,0.0232,0.0233,0,0,0,0,0,0,0.0307,0.0299,0.0311,0.0311,0.0301,0.0294,0.0292,0.0294,0.0266,0.0263,0.0281,0.0279,0.0245,0.0242,0.0239,0.0255,0.0222,0.0221,0.0221,0.0231,0.0232,0.0233,0,0,0,0,0,0,0.0307,0.0308,0.0312,0.0307,0.0307,0.0295,0.0297,0.0294,0.0292,0.0269,0.0264,0.0284,0.0244,0.0241,0.0242,0.0253,0.0221,0.022,0.023,0.0232,0.0233,0.0282,0,0,0,0,0,0,0.0306,0.0308,0.0314,0.0307,0.0308,0.032,0.0298,0.0294,0.0297,0.0294,0.027,0.0265,0.0244,0.0244,0.0241,0.0251,0.0219,0.0229,0.0231,0.0233,0.0279,0.0285,0.0289,0,0,0,0,0,0.0306,0.032,0.0315,0.0316,0.0316,0.0321,0.032,0.0307,0.0298,0.0301,0.0289,0.0265,0.0252,0.0244,0.024,0.025,0.0228,0.023,0.0232,0.0277,0.0284,0.0289,0,0,0,0,0,0,0.0311,0.0318,0.0312,0.0325,0.0325,0.0316,0.0323,0.0314,0.0307,0.0306,0.0279,0.0274,0.0279,0.0262,0.0254,0.0259,0.0236,0.0237,0.0271,0.0277,0.0282,0.0265,0.0218,0,0,0,0,0,0.0318,0.0335,0.033,0.0344,0.0344,0.0335,0.0337,0.0329,0.0323,0.0319,0.0305,0.0292,0.0285,0.0279,0.0271,0.0276,0.0223,0.028,0.0285,0.0289,0.0274,0.0209,0.0206,0.024,0.024,0.024,0,0,0.0324,0.0333,0.034,0.0348,0.0346,0.0351,0.0334,0.0343,0.0348,0.0317,0.0323,0.0312,0.0292,0.0297,0.0297,0.0283,0.0254,0.0292,0.0296,0.0278,0.0211,0.0207,0.0204,0.0241,0.0241,0.0241,0,0,0.0347,0.0351,0.0369,0.0372,0.0379,0.0373,0.0378,0.0374,0.0372,0.0382,0.036,0.0352,0.0349,0.0329,0.032,0.0349,0.0287,0.0354,0.0362,0.03,0.0296,0.0291,0.0223,0.0212,0.0353,0.0353,0.0353,0,0.0352,0.0371,0.0374,0.0389,0.0394,0.0385,0.0394,0.0396,0.0394,0.0386,0.0391,0.0367,0.036,0.0342,0.0358,0.0359,0.0308,0.034,0.0304,0.0299,0.0293,0.0224,0.0211,0.0356,0.0356,0.0355,0.0355,0,0.038,0.0396,0.0408,0.0423,0.0427,0.0439,0.0438,0.0442,0.0443,0.043,0.0421,0.041,0.0385,0.0394,0.0388,0.0354,0.0324,0.032,0.0283,0.0292,0.022,0.0206,0.036,0.0359,0.0358,0.0357,0,0,0.0386,0.0421,0.0424,0.0431,0.0445,0.0447,0.0464,0.0457,0.0449,0.0452,0.043,0.0436,0.0412,0.04,0.0388,0.0345,0.0281,0.0321,0.0316,0.0244,0.0128,0.0136,0.0121,0.0264,0.0262,0.026,0.0093,0,0.0403,0.0437,0.0449,0.047,0.0478,0.0478,0.0488,0.0482,0.0473,0.0451,0.0431,0.0413,0.042,0.0409,0.0368,0.03,0.0245,0.0325,0.0137,0.0131,0.013,0.0106,0.0254,0.0082,0.0079,0.0076,0.0074,0,0.0416,0.0439,0.0465,0.0483,0.0485,0.0498,0.049,0.0499,0.0469,0.0457,0.0425,0.0401,0.0351,0.0359,0.0226,0.0274,0.0202,0.0149,0.0141,0.0116,0.0113,0.007,0.0048,0.005,0.0052,0.0054,0.0055,0,0.0406,0.0443,0.0465,0.0473,0.0494,0.0503,0.0513,0.0496,0.0497,0.0453,0.0435,0.0364,0.0329,0.0234,0.0149,0.0173,-0.0012,0.0002,-0.0066,-0.0067,-0.0048,-0.0041,-0.0112,-0.0111,-0.0111,-0.011,-0.011,0,0.0409,0.0424,0.0465,0.0474,0.0493,0.0506,0.0513,0.0506,0.0491,0.0482,0.0438,0.0406,0.0295,0.0195,0.0114,-0.0024,-0.0049,-0.0086,-0.0115,-0.002,-0.0009,-0.0058,-0.005,-0.0117,-0.0115,-0.0114,-0.0113,0,0.0387,0.0418,0.044,0.0475,0.049,0.0501,0.0533,0.0533,0.0518,0.0503,0.0493,0.0407,0.0279,0.0161,-0.0013,-0.007,-0.0198,-0.0241,-0.0149,-0.0167,-0.0208,-0.0195,-0.0351,-0.0352,-0.0353,-0.0354,-0.0354,0,0.0378,0.0391,0.0438,0.0459,0.048,0.0509,0.0532,0.0543,0.055,0.0511,0.0503,0.0381,0.0317,0.0066,-0.0057,-0.0253,-0.0256,-0.0337,-0.0254,-0.0223,-0.0236,-0.0221,-0.0207,-0.0356,-0.0356,-0.0357,-0.0357,0,0.0355,0.0376,0.0398,0.0447,0.0483,0.052,0.0561,0.0568,0.0581,0.0563,0.0503,0.0391,0.0235,0.0064,-0.0096,-0.022,-0.029,-0.0347,-0.0345,-0.0269,-0.0232,-0.024,-0.0225,-0.036,-0.036,-0.036,-0.0359,0,0.0336,0.035,0.0391,0.0432,0.0481,0.0531,0.055,0.057,0.0577,0.0555,0.0526,0.0381,0.0287,0.0078,-0.0062,-0.0195,-0.0211,-0.0233,-0.0237,-0.0234,-0.013,-0.0061,-0.0182,0,0,0,0,0,0.0314,0.0341,0.0377,0.0429,0.048,0.0517,0.0571,0.059,0.0607,0.0573,0.0558,0.0428,0.0216,0.0112,-0.002,-0.0082,-0.0241,-0.0241,-0.0269,-0.038,-0.0376,-0.0269,0,0,0,0,0,0,0.0304,0.0337,0.0368,0.0428,0.0465,0.0527,0.0568,0.0581,0.0567,0.056,0.0445,0.0398,0.0183,0.0287,-0.0025,-0.0067,-0.01,-0.0342,-0.0345,-0.0382,-0.0379,-0.0375,-0.0264,0,0,0,0,0]}]]